Location: Unspecified
(52.4292°N, 19.3359°E)
Time: 11:55:06
(UTC+02:00)

Tiangong - Visible Passes

Search period start: 20 April 2024 00:00
Search period end: 30 April 2024 00:00
Orbit: 371 x 379 km, 41.5° (Epoch: 19 April)

Date Brightness Start Highest point End Pass type
(mag) Time Alt. Az. Time Alt. Az. Time Alt. Az.
20 Apr 0.3 21:30:05 10° SSW 21:30:24 11° SSW 21:30:24 11° SSW visible
21 Apr 0.2 20:27:55 10° S 20:28:38 11° S 20:29:21 10° SSE visible
22 Apr 0.2 21:00:44 10° SSW 21:01:46 11° S 21:02:45 10° SSE visible
